,,,PA_Meas_PMT16A,,PR_Meas_QMR101_102,,RH_Meas_QMH101,,SR_Meas_QMS101,,TA_Meas_QMH101,,GenWind,,GenWind,
date,time,status,PA,status,PR,status,RH,status,SR,status,TA,status,DirAvg,status,SpdAvg,
2012-03-06, 00:00:04,VALID,997.823,VALID,0,VALID,92.677,VALID,0,VALID,23.9159,VALID,107,VALID,0.263281,
2012-03-06, 00:01:04,VALID,997.831,VALID,0,VALID,92.7228,VALID,0,VALID,23.9159,VALID,107,VALID,0.181641,
2012-03-06, 00:02:04,VALID,997.808,VALID,0,VALID,92.6846,VALID,0,VALID,23.9354,VALID,107,VALID,0.253516,
2012-03-06, 00:03:04,VALID,997.843,VALID,0,VALID,92.6312,VALID,0,VALID,23.9159,VALID,107,VALID,0.196094,
2012-03-06, 00:04:04,VALID,997.815,VALID,0,VALID,92.616,VALID,0,VALID,23.9159,VALID,107,VALID,0.144531,
2012-03-06, 00:05:04,VALID,997.809,VALID,0,VALID,92.6541,VALID,0,VALID,23.9159,VALID,107,VALID,0.271875,
2012-03-06, 00:06:04,VALID,997.816,VALID,0,VALID,92.5854,VALID,0,VALID,23.8963,VALID,107,VALID,0.226563,
2012-03-06, 00:07:04,VALID,997.822,VALID,0,VALID,92.5397,VALID,0,VALID,23.8963,VALID,107,VALID,0.322266,
2012-03-06, 00:08:04,VALID,997.813,VALID,0,VALID,92.5549,VALID,0,VALID,23.8963,VALID,107,VALID,0.139062,
2012-03-06, 00:09:04,VALID,997.81,VALID,0,VALID,92.6236,VALID,0,VALID,23.8963,VALID,107,VALID,0,
2012-03-06, 00:10:04,VALID,997.821,VALID,0,VALID,92.5778,VALID,0,VALID,23.8963,VALID,107,VALID,0,
2012-03-06, 00:11:04,VALID,997.805,VALID,0,VALID,92.5549,VALID,0,VALID,23.8963,VALID,107,VALID,0,
2012-03-06, 00:12:04,VALID,997.821,VALID,0,VALID,92.5015,VALID,0,VALID,23.8963,VALID,107,VALID,0,
2012-03-06, 00:13:04,VALID,997.821,VALID,0,VALID,92.5091,VALID,0,VALID,23.8963,VALID,107,VALID,0,
2012-03-06, 00:14:04,VALID,997.817,VALID,0,VALID,92.4863,VALID,0,VALID,23.8963,VALID,107,VALID,0,
2012-03-06, 00:15:04,VALID,997.753,VALID,0,VALID,92.4939,VALID,0,VALID,23.9159,VALID,107,VALID,0,
2012-03-06, 00:16:04,VALID,997.773,VALID,0,VALID,92.5397,VALID,0,VALID,23.9159,VALID,107,VALID,0,
2012-03-06, 00:17:04,VALID,997.75,VALID,0,VALID,92.5854,VALID,0,VALID,23.9159,VALID,107,VALID,0,
2012-03-06, 00:18:04,VALID,997.732,VALID,0,VALID,92.6388,VALID,0,VALID,23.9159,VALID,107,VALID,0,
2012-03-06, 00:19:04,VALID,997.713,VALID,0,VALID,92.6007,VALID,0,VALID,23.8963,VALID,107,VALID,0,
2012-03-06, 00:20:04,VALID,997.72,VALID,0,VALID,92.5549,VALID,0,VALID,23.8963,VALID,107,VALID,0,
2012-03-06, 00:21:04,VALID,997.749,VALID,0,VALID,92.5626,VALID,0,VALID,23.8555,VALID,107,VALID,0,
2012-03-06, 00:22:04,VALID,997.729,VALID,0,VALID,92.616,VALID,0,VALID,23.8768,VALID,107,VALID,0,
2012-03-06, 00:23:04,VALID,997.742,VALID,0,VALID,92.6846,VALID,0,VALID,23.8963,VALID,107,VALID,0,
2012-03-06, 00:24:04,VALID,997.728,VALID,0,VALID,92.738,VALID,0,VALID,23.8768,VALID,107,VALID,0,
2012-03-06, 00:25:04,VALID,997.785,VALID,0,VALID,92.7609,VALID,0,VALID,23.8768,VALID,107,VALID,0,
2012-03-06, 00:26:04,VALID,997.756,VALID,0,VALID,92.7838,VALID,0,VALID,23.8555,VALID,107,VALID,0,
2012-03-06, 00:27:04,VALID,997.754,VALID,0,VALID,92.822,VALID,0,VALID,23.836,VALID,107,VALID,0,
2012-03-06, 00:28:04,VALID,997.741,VALID,0,VALID,92.8143,VALID,0,VALID,23.8573,VALID,107,VALID,0,
2012-03-06, 00:29:04,VALID,997.734,VALID,0,VALID,92.7609,VALID,0,VALID,23.8573,VALID,107,VALID,0,
2012-03-06, 00:30:04,VALID,997.722,VALID,0,VALID,92.6923,VALID,0,VALID,23.8378,VALID,107,VALID,0,
2012-03-06, 00:31:04,VALID,997.72,VALID,0,VALID,92.677,VALID,0,VALID,23.8378,VALID,107,VALID,0,
2012-03-06, 00:32:04,VALID,997.756,VALID,0,VALID,92.6617,VALID,0,VALID,23.8183,VALID,107,VALID,0,
2012-03-06, 00:33:04,VALID,997.735,VALID,0,VALID,92.7609,VALID,0,VALID,23.797,VALID,107,VALID,0,
2012-03-06, 00:34:04,VALID,997.719,VALID,0,VALID,92.8296,VALID,0,VALID,23.797,VALID,107,VALID,0,
2012-03-06, 00:35:04,VALID,997.702,VALID,0,VALID,92.8601,VALID,0,VALID,23.8183,VALID,107,VALID,0,
2012-03-06, 00:36:04,VALID,997.659,VALID,0,VALID,92.8677,VALID,0,VALID,23.8183,VALID,107,VALID,0,
2012-03-06, 00:37:04,VALID,997.663,VALID,0,VALID,92.8677,VALID,0,VALID,23.8165,VALID,107,VALID,0,
2012-03-06, 00:38:04,VALID,997.672,VALID,0,VALID,92.8677,VALID,0,VALID,23.8378,VALID,107,VALID,0,
2012-03-06, 00:39:04,VALID,997.641,VALID,0,VALID,92.8601,VALID,0,VALID,23.836,VALID,107,VALID,0,
2012-03-06, 00:40:04,VALID,997.672,VALID,0,VALID,92.8448,VALID,0,VALID,23.836,VALID,115,VALID,0,
2012-03-06, 00:41:04,VALID,997.637,VALID,0,VALID,92.7991,VALID,0,VALID,23.8573,VALID,140,VALID,0,
2012-03-06, 00:42:04,VALID,997.602,VALID,0,VALID,92.6846,VALID,0,VALID,23.836,VALID,141,VALID,0,
2012-03-06, 00:43:04,VALID,997.599,VALID,0,VALID,92.5549,VALID,0,VALID,23.8573,VALID,148,VALID,0.835938,
2012-03-06, 00:44:04,VALID,997.598,VALID,0,VALID,92.4939,VALID,0,VALID,23.836,VALID,148,VALID,0.812891,
2012-03-06, 00:45:04,VALID,997.574,VALID,0,VALID,92.4023,VALID,0,VALID,23.8573,VALID,148,VALID,0.722266,
2012-03-06, 00:46:04,VALID,997.554,VALID,0,VALID,92.3871,VALID,0,VALID,23.8555,VALID,148,VALID,0.561719,
2012-03-06, 00:47:04,VALID,997.528,VALID,0,VALID,92.3642,VALID,0,VALID,23.8982,VALID,148,VALID,0.348047,
2012-03-06, 00:48:04,VALID,997.528,VALID,0,VALID,92.3947,VALID,0,VALID,23.8768,VALID,148,VALID,0.382813,
2012-03-06, 00:49:04,VALID,997.527,VALID,0,VALID,92.3871,VALID,0,VALID,23.8768,VALID,151,VALID,0.626172,
2012-03-06, 00:50:04,VALID,997.517,VALID,0,VALID,92.3566,VALID,0,VALID,23.8963,VALID,152,VALID,0.707422,
2012-03-06, 00:51:04,VALID,997.515,VALID,0,VALID,92.3184,VALID,0,VALID,23.8963,VALID,152,VALID,0.78125,
2012-03-06, 00:52:04,VALID,997.537,VALID,0,VALID,92.2345,VALID,0,VALID,23.8963,VALID,152,VALID,0.761328,
2012-03-06, 00:53:04,VALID,997.508,VALID,0,VALID,92.1811,VALID,0,VALID,23.9159,VALID,152,VALID,0.880078,
2012-03-06, 00:54:04,VALID,997.519,VALID,0,VALID,92.1506,VALID,0,VALID,23.914,VALID,152,VALID,0.833594,
2012-03-06, 00:55:04,VALID,997.512,VALID,0,VALID,92.2268,VALID,0,VALID,23.9549,VALID,152,VALID,0.895312,
2012-03-06, 00:56:04,VALID,997.512,VALID,0,VALID,92.1048,VALID,0,VALID,23.9336,VALID,152,VALID,0.625,
2012-03-06, 00:57:04,VALID,997.505,VALID,0,VALID,92.1124,VALID,0,VALID,23.9531,VALID,152,VALID,0.445313,
2012-03-06, 00:58:04,VALID,997.535,VALID,0,VALID,92.1963,VALID,0,VALID,23.9531,VALID,152,VALID,0.419922,
2012-03-06, 00:59:04,VALID,997.506,VALID,0,VALID,92.326,VALID,0,VALID,23.9744,VALID,152,VALID,0.323047,
2012-03-06, 01:00:04,VALID,997.503,VALID,0,VALID,92.4023,VALID,0,VALID,23.9939,VALID,152,VALID,0.45,
2012-03-06, 01:01:04,VALID,997.456,VALID,0,VALID,92.4481,VALID,0,VALID,23.9726,VALID,152,VALID,0.486719,
2012-03-06, 01:02:04,VALID,997.458,VALID,0,VALID,92.3947,VALID,0,VALID,23.9939,VALID,152,VALID,0.396094,
2012-03-06, 01:03:04,VALID,997.434,VALID,0,VALID,92.3642,VALID,0,VALID,23.9744,VALID,152,VALID,0.575781,
2012-03-06, 01:04:04,VALID,997.44,VALID,0,VALID,92.3413,VALID,0,VALID,23.9744,VALID,152,VALID,0.577734,
2012-03-06, 01:05:04,VALID,997.434,VALID,0,VALID,92.3413,VALID,0,VALID,23.9336,VALID,152,VALID,0.463281,
2012-03-06, 01:06:04,VALID,997.424,VALID,0,VALID,92.326,VALID,0,VALID,23.9159,VALID,152,VALID,0.217578,
2012-03-06, 01:07:04,VALID,997.385,VALID,0,VALID,92.2955,VALID,0,VALID,23.9159,VALID,152,VALID,0.00703125,
2012-03-06, 01:08:04,VALID,997.39,VALID,0,VALID,92.3566,VALID,0,VALID,23.8963,VALID,152,VALID,0.248437,
2012-03-06, 01:09:04,VALID,997.347,VALID,0,VALID,92.4252,VALID,0,VALID,23.8963,VALID,152,VALID,0.328906,
2012-03-06, 01:10:04,VALID,997.329,VALID,0,VALID,92.4939,VALID,0,VALID,23.8963,VALID,152,VALID,0.348828,
2012-03-06, 01:11:04,VALID,997.346,VALID,0,VALID,92.5931,VALID,0,VALID,23.8963,VALID,152,VALID,0.290234,
2012-03-06, 01:12:04,VALID,997.328,VALID,0,VALID,92.6465,VALID,0,VALID,23.8963,VALID,152,VALID,0.235938,
2012-03-06, 01:13:04,VALID,997.328,VALID,0,VALID,92.6541,VALID,0,VALID,23.8963,VALID,152,VALID,0.247266,
2012-03-06, 01:14:04,VALID,997.295,VALID,0,VALID,92.6465,VALID,0,VALID,23.8768,VALID,152,VALID,0.391797,
2012-03-06, 01:15:04,VALID,997.286,VALID,0,VALID,92.6923,VALID,0,VALID,23.8768,VALID,152,VALID,0.420312,
2012-03-06, 01:16:04,VALID,997.271,VALID,0,VALID,92.7838,VALID,0,VALID,23.8768,VALID,152,VALID,0.406641,
2012-03-06, 01:17:04,VALID,997.252,VALID,0,VALID,92.8601,VALID,0,VALID,23.8573,VALID,152,VALID,0.332812,
2012-03-06, 01:18:04,VALID,997.255,VALID,0,VALID,92.9135,VALID,0,VALID,23.8573,VALID,152,VALID,0.0628906,
2012-03-06, 01:19:04,VALID,997.219,VALID,0,VALID,92.944,VALID,0,VALID,23.8573,VALID,152,VALID,0,
2012-03-06, 01:20:04,VALID,997.205,VALID,0,VALID,92.944,VALID,0,VALID,23.8165,VALID,152,VALID,0,
2012-03-06, 01:21:04,VALID,997.207,VALID,0,VALID,93.0051,VALID,0,VALID,23.8378,VALID,152,VALID,0,
2012-03-06, 01:22:04,VALID,997.182,VALID,0,VALID,93.0508,VALID,0,VALID,23.8183,VALID,152,VALID,0.249609,
2012-03-06, 01:23:04,VALID,997.152,VALID,0,VALID,93.1271,VALID,0,VALID,23.7775,VALID,152,VALID,0.352734,
2012-03-06, 01:24:04,VALID,997.158,VALID,0,VALID,93.1424,VALID,0,VALID,23.7988,VALID,152,VALID,0.383203,
2012-03-06, 01:25:04,VALID,997.113,VALID,0,VALID,93.1805,VALID,0,VALID,23.7988,VALID,152,VALID,0.40625,
2012-03-06, 01:26:04,VALID,997.121,VALID,0,VALID,93.2034,VALID,0,VALID,23.7775,VALID,152,VALID,0.404687,
2012-03-06, 01:27:04,VALID,997.091,VALID,0,VALID,93.2721,VALID,0,VALID,23.8183,VALID,152,VALID,0.298047,
2012-03-06, 01:28:05,VALID,997.048,VALID,0,VALID,93.3026,VALID,0,VALID,23.7988,VALID,152,VALID,0.190234,
2012-03-06, 01:29:04,VALID,997.057,VALID,0,VALID,93.295,VALID,0,VALID,23.8183,VALID,152,VALID,0.144531,
2012-03-06, 01:30:04,VALID,997.016,VALID,0,VALID,93.3026,VALID,0,VALID,23.7988,VALID,152,VALID,0,
2012-03-06, 01:31:05,VALID,996.994,VALID,0,VALID,93.3026,VALID,0,VALID,23.7988,VALID,152,VALID,0,
2012-03-06, 01:32:05,VALID,996.983,VALID,0,VALID,93.3255,VALID,0,VALID,23.7988,VALID,152,VALID,0,
2012-03-06, 01:33:05,VALID,996.975,VALID,0,VALID,93.3331,VALID,0,VALID,23.7988,VALID,152,VALID,0,
2012-03-06, 01:34:05,VALID,996.971,VALID,0,VALID,93.356,VALID,0,VALID,23.7988,VALID,152,VALID,0,
2012-03-06, 01:35:05,VALID,996.947,VALID,0,VALID,93.3942,VALID,0,VALID,23.7793,VALID,152,VALID,0,
2012-03-06, 01:36:05,VALID,996.935,VALID,0,VALID,93.4323,VALID,0,VALID,23.7793,VALID,152,VALID,0,
2012-03-06, 01:37:05,VALID,996.967,VALID,0,VALID,93.4552,VALID,0,VALID,23.8006,VALID,152,VALID,0,
2012-03-06, 01:38:05,VALID,996.946,VALID,0,VALID,93.4628,VALID,0,VALID,23.7793,VALID,152,VALID,0,
2012-03-06, 01:39:05,VALID,996.926,VALID,0,VALID,93.4934,VALID,0,VALID,23.7597,VALID,152,VALID,0,
2012-03-06, 01:40:05,VALID,996.945,VALID,0,VALID,93.5468,VALID,0,VALID,23.7597,VALID,152,VALID,0,
2012-03-06, 01:41:05,VALID,996.948,VALID,0,VALID,93.5468,VALID,0,VALID,23.7597,VALID,152,VALID,0,
2012-03-06, 01:42:05,VALID,996.94,VALID,0,VALID,93.5697,VALID,0,VALID,23.7597,VALID,152,VALID,0,
2012-03-06, 01:43:05,VALID,996.931,VALID,0,VALID,93.5773,VALID,0,VALID,23.7597,VALID,152,VALID,0,
2012-03-06, 01:44:05,VALID,996.927,VALID,0,VALID,93.5849,VALID,0,VALID,23.7402,VALID,152,VALID,0,
2012-03-06, 01:45:05,VALID,996.927,VALID,0,VALID,93.6002,VALID,0,VALID,23.7402,VALID,152,VALID,0,
2012-03-06, 01:46:05,VALID,996.902,VALID,0,VALID,93.6536,VALID,0,VALID,23.7402,VALID,152,VALID,0,
2012-03-06, 01:47:05,VALID,996.923,VALID,0,VALID,93.707,VALID,0,VALID,23.7402,VALID,152,VALID,0,
2012-03-06, 01:48:05,VALID,996.89,VALID,0,VALID,93.7604,VALID,0,VALID,23.7597,VALID,152,VALID,0,
2012-03-06, 01:49:05,VALID,996.872,VALID,0,VALID,93.768,VALID,0,VALID,23.7597,VALID,152,VALID,0,
2012-03-06, 01:50:05,VALID,996.881,VALID,0,VALID,93.7604,VALID,0,VALID,23.7402,VALID,152,VALID,0,
2012-03-06, 01:51:05,VALID,996.842,VALID,0,VALID,93.7909,VALID,0,VALID,23.7384,VALID,152,VALID,0,
2012-03-06, 01:52:05,VALID,996.833,VALID,0,VALID,93.7757,VALID,0,VALID,23.7597,VALID,152,VALID,0,
2012-03-06, 01:53:05,VALID,996.806,VALID,0,VALID,93.7985,VALID,0,VALID,23.7402,VALID,152,VALID,0,
2012-03-06, 01:54:05,VALID,996.813,VALID,0,VALID,93.8062,VALID,0,VALID,23.7402,VALID,112,VALID,0,
2012-03-06, 01:55:05,VALID,996.82,VALID,0,VALID,93.7757,VALID,0,VALID,23.7207,VALID,72,VALID,0,
2012-03-06, 01:56:05,VALID,996.786,VALID,0,VALID,93.7757,VALID,0,VALID,23.7207,VALID,56,VALID,0,
2012-03-06, 01:57:05,VALID,996.774,VALID,0,VALID,93.7223,VALID,0,VALID,23.7207,VALID,56,VALID,0,
2012-03-06, 01:58:05,VALID,996.753,VALID,0,VALID,93.6994,VALID,0,VALID,23.7012,VALID,56,VALID,0,
2012-03-06, 01:59:05,VALID,996.732,VALID,0,VALID,93.6841,VALID,0,VALID,23.6817,VALID,56,VALID,0,
2012-03-06, 02:00:05,VALID,996.721,VALID,0,VALID,93.6765,VALID,0,VALID,23.6622,VALID,56,VALID,0,
2012-03-06, 02:01:05,VALID,996.71,VALID,0,VALID,93.707,VALID,0,VALID,23.6622,VALID,56,VALID,0,
2012-03-06, 02:02:05,VALID,996.682,VALID,0,VALID,93.6994,VALID,0,VALID,23.6427,VALID,56,VALID,0,
2012-03-06, 02:03:05,VALID,996.68,VALID,0,VALID,93.6994,VALID,0,VALID,23.6427,VALID,56,VALID,0,
2012-03-06, 02:04:05,VALID,996.649,VALID,0,VALID,93.6536,VALID,0,VALID,23.6232,VALID,56,VALID,0,
2012-03-06, 02:05:05,VALID,996.664,VALID,0,VALID,93.6383,VALID,0,VALID,23.6036,VALID,56,VALID,0,
2012-03-06, 02:06:05,VALID,996.647,VALID,0,VALID,93.6154,VALID,0,VALID,23.5841,VALID,56,VALID,0,
2012-03-06, 02:07:05,VALID,996.596,VALID,0,VALID,93.6154,VALID,0,VALID,23.5841,VALID,56,VALID,0,
2012-03-06, 02:08:05,VALID,996.588,VALID,0,VALID,93.646,VALID,0,VALID,23.5646,VALID,56,VALID,0,
2012-03-06, 02:09:05,VALID,996.576,VALID,0,VALID,93.646,VALID,0,VALID,23.5646,VALID,56,VALID,0,
2012-03-06, 02:10:05,VALID,996.557,VALID,0,VALID,93.6917,VALID,0,VALID,23.5238,VALID,56,VALID,0,
2012-03-06, 02:11:05,VALID,996.563,VALID,0,VALID,93.6994,VALID,0,VALID,23.5256,VALID,56,VALID,0,
2012-03-06, 02:12:05,VALID,996.565,VALID,0,VALID,93.7146,VALID,0,VALID,23.5061,VALID,56,VALID,0,
2012-03-06, 02:13:05,VALID,996.531,VALID,0,VALID,93.707,VALID,0,VALID,23.5061,VALID,56,VALID,0,
2012-03-06, 02:14:05,VALID,996.56,VALID,0,VALID,93.768,VALID,0,VALID,23.4848,VALID,56,VALID,0,
2012-03-06, 02:15:05,VALID,996.525,VALID,0,VALID,93.8443,VALID,0,VALID,23.4866,VALID,56,VALID,0,
2012-03-06, 02:16:05,VALID,996.514,VALID,0,VALID,93.9206,VALID,0,VALID,23.5061,VALID,56,VALID,0,
2012-03-06, 02:17:05,VALID,996.511,VALID,0,VALID,93.9283,VALID,0,VALID,23.4848,VALID,56,VALID,0.344531,
2012-03-06, 02:18:05,VALID,996.485,VALID,0,VALID,93.9969,VALID,0,VALID,23.4653,VALID,56,VALID,0.644531,
2012-03-06, 02:19:05,VALID,996.48,VALID,0,VALID,93.9969,VALID,0,VALID,23.4653,VALID,56,VALID,0.633203,
2012-03-06, 02:20:05,VALID,996.455,VALID,0,VALID,93.9893,VALID,0,VALID,23.4653,VALID,56,VALID,0.61875,
2012-03-06, 02:21:05,VALID,996.439,VALID,0,VALID,93.9893,VALID,0,VALID,23.4458,VALID,56,VALID,0.537109,
2012-03-06, 02:22:05,VALID,996.411,VALID,0,VALID,93.9588,VALID,0,VALID,23.4475,VALID,56,VALID,0.514063,
2012-03-06, 02:23:05,VALID,996.388,VALID,0,VALID,93.9511,VALID,0,VALID,23.428,VALID,56,VALID,0.533203,
2012-03-06, 02:24:05,VALID,996.377,VALID,0,VALID,93.9054,VALID,0,VALID,23.4085,VALID,56,VALID,0.382422,
2012-03-06, 02:25:05,VALID,996.371,VALID,0,VALID,93.8977,VALID,0,VALID,23.389,VALID,56,VALID,0.372266,
2012-03-06, 02:26:05,VALID,996.327,VALID,0,VALID,93.9054,VALID,0,VALID,23.3695,VALID,56,VALID,0.263672,
2012-03-06, 02:27:05,VALID,996.29,VALID,0,VALID,93.9511,VALID,0,VALID,23.35,VALID,56,VALID,0.257031,
2012-03-06, 02:28:05,VALID,996.287,VALID,0,VALID,93.9511,VALID,0,VALID,23.35,VALID,56,VALID,0.0121094,
2012-03-06, 02:29:05,VALID,996.278,VALID,0,VALID,93.974,VALID,0,VALID,23.3092,VALID,56,VALID,0,
2012-03-06, 02:30:05,VALID,996.262,VALID,0,VALID,93.9588,VALID,0,VALID,23.3092,VALID,56,VALID,0,
2012-03-06, 02:31:05,VALID,996.27,VALID,0,VALID,93.9817,VALID,0,VALID,23.2897,VALID,56,VALID,0,
2012-03-06, 02:32:05,VALID,996.274,VALID,0,VALID,93.9588,VALID,0,VALID,23.311,VALID,56,VALID,0,
2012-03-06, 02:33:05,VALID,996.274,VALID,0,VALID,93.9435,VALID,0,VALID,23.2702,VALID,56,VALID,0,
2012-03-06, 02:34:05,VALID,996.264,VALID,0,VALID,93.9359,VALID,0,VALID,23.2719,VALID,56,VALID,0,
2012-03-06, 02:35:05,VALID,996.276,VALID,0,VALID,93.9435,VALID,0,VALID,23.2702,VALID,56,VALID,0,
2012-03-06, 02:36:05,VALID,996.27,VALID,0,VALID,93.9664,VALID,0,VALID,23.2507,VALID,56,VALID,0,
2012-03-06, 02:37:05,VALID,996.269,VALID,0,VALID,94.0122,VALID,0,VALID,23.2507,VALID,56,VALID,0,
2012-03-06, 02:38:05,VALID,996.261,VALID,0,VALID,94.0122,VALID,0,VALID,23.2719,VALID,56,VALID,0,
2012-03-06, 02:39:05,VALID,996.291,VALID,0,VALID,94.0503,VALID,0,VALID,23.2524,VALID,56,VALID,0,
2012-03-06, 02:40:05,VALID,996.298,VALID,0,VALID,94.119,VALID,0,VALID,23.2719,VALID,56,VALID,0,
2012-03-06, 02:41:05,VALID,996.284,VALID,0,VALID,94.1571,VALID,0,VALID,23.2915,VALID,56,VALID,0,
2012-03-06, 02:42:05,VALID,996.309,VALID,0,VALID,94.18,VALID,0,VALID,23.2702,VALID,56,VALID,0,
2012-03-06, 02:43:05,VALID,996.325,VALID,0,VALID,94.2411,VALID,0,VALID,23.2915,VALID,56,VALID,0,
2012-03-06, 02:44:05,VALID,996.336,VALID,0,VALID,94.2258,VALID,0,VALID,23.2897,VALID,83,VALID,0,
2012-03-06, 02:45:05,VALID,996.314,VALID,0,VALID,94.1724,VALID,0,VALID,23.2702,VALID,94,VALID,0,
2012-03-06, 02:46:05,VALID,996.366,VALID,0,VALID,94.0656,VALID,0,VALID,23.2524,VALID,101,VALID,0.744531,
2012-03-06, 02:47:05,VALID,996.339,VALID,0,VALID,94.0198,VALID,0,VALID,23.2117,VALID,101,VALID,0.721875,
2012-03-06, 02:48:05,VALID,996.343,VALID,0,VALID,93.9817,VALID,0,VALID,23.2134,VALID,101,VALID,0.491797,
2012-03-06, 02:49:05,VALID,996.337,VALID,0,VALID,93.9817,VALID,0,VALID,23.1939,VALID,101,VALID,0.364453,
2012-03-06, 02:50:05,VALID,996.357,VALID,0,VALID,93.974,VALID,0,VALID,23.1939,VALID,101,VALID,0.275,
2012-03-06, 02:51:05,VALID,996.322,VALID,0,VALID,94.0122,VALID,0,VALID,23.1531,VALID,101,VALID,0.211719,
2012-03-06, 02:52:05,VALID,996.336,VALID,0,VALID,94.0732,VALID,0,VALID,23.1939,VALID,93,VALID,0.433203,
2012-03-06, 02:53:05,VALID,996.357,VALID,0,VALID,94.1343,VALID,0,VALID,23.1726,VALID,93,VALID,0.184375,
2012-03-06, 02:54:05,VALID,996.323,VALID,0,VALID,94.1419,VALID,0,VALID,23.1939,VALID,93,VALID,0.174609,
2012-03-06, 02:55:05,VALID,996.349,VALID,0,VALID,94.1495,VALID,0,VALID,23.1744,VALID,93,VALID,0.104687,
2012-03-06, 02:56:05,VALID,996.335,VALID,0,VALID,94.18,VALID,0,VALID,23.1939,VALID,93,VALID,0.295703,
2012-03-06, 02:57:05,VALID,996.345,VALID,0,VALID,94.2105,VALID,0,VALID,23.1921,VALID,93,VALID,0.369141,
2012-03-06, 02:58:05,VALID,996.36,VALID,0,VALID,94.1571,VALID,0,VALID,23.1939,VALID,93,VALID,0.488672,
2012-03-06, 02:59:05,VALID,996.38,VALID,0,VALID,94.1343,VALID,0,VALID,23.1726,VALID,93,VALID,0.600781,
2012-03-06, 03:00:05,VALID,996.366,VALID,0,VALID,94.1571,VALID,0,VALID,23.1939,VALID,93,VALID,0.588281,
2012-03-06, 03:01:05,VALID,996.38,VALID,0,VALID,94.1419,VALID,0,VALID,23.1939,VALID,93,VALID,0.501562,
2012-03-06, 03:02:05,VALID,996.358,VALID,0,VALID,94.1343,VALID,0,VALID,23.1921,VALID,93,VALID,0.526172,
2012-03-06, 03:03:05,VALID,996.371,VALID,0,VALID,94.119,VALID,0,VALID,23.1921,VALID,91,VALID,0.687109,
2012-03-06, 03:04:05,VALID,996.323,VALID,0,VALID,94.0732,VALID,0,VALID,23.2134,VALID,76,VALID,0.644922,
2012-03-06, 03:05:05,VALID,996.33,VALID,0,VALID,94.0274,VALID,0,VALID,23.1726,VALID,76,VALID,0.585938,
2012-03-06, 03:06:05,VALID,996.343,VALID,0,VALID,93.9283,VALID,0,VALID,23.1744,VALID,48,VALID,0.878906,
2012-03-06, 03:07:05,VALID,996.34,VALID,0,VALID,93.852,VALID,0,VALID,23.1354,VALID,38,VALID,0.917188,
2012-03-06, 03:08:05,VALID,996.352,VALID,0,VALID,93.8443,VALID,0,VALID,23.1159,VALID,38,VALID,0.854297,
2012-03-06, 03:09:05,VALID,996.336,VALID,0,VALID,93.8672,VALID,0,VALID,23.0556,VALID,38,VALID,0.748438,
2012-03-06, 03:10:05,VALID,996.388,VALID,0,VALID,93.913,VALID,0,VALID,23.0361,VALID,38,VALID,0.717188,
2012-03-06, 03:11:05,VALID,996.426,VALID,0,VALID,93.9817,VALID,0,VALID,23.0166,VALID,38,VALID,0.579297,
2012-03-06, 03:12:05,VALID,996.425,VALID,0,VALID,93.9969,VALID,0,VALID,23.0183,VALID,38,VALID,0.466016,
2012-03-06, 03:13:05,VALID,996.465,VALID,0,VALID,94.0274,VALID,0,VALID,22.9971,VALID,39,VALID,0.666406,
2012-03-06, 03:14:05,VALID,996.474,VALID,0,VALID,94.0808,VALID,0,VALID,23.0183,VALID,49,VALID,0.739062,
2012-03-06, 03:15:05,VALID,996.519,VALID,0,VALID,94.1571,VALID,0,VALID,22.9971,VALID,49,VALID,0.636328,
2012-03-06, 03:16:05,VALID,996.511,VALID,0,VALID,94.1648,VALID,0,VALID,22.9776,VALID,58,VALID,0.676953,
2012-03-06, 03:17:05,VALID,996.529,VALID,0,VALID,94.1877,VALID,0,VALID,22.9988,VALID,71,VALID,0.391797,
2012-03-06, 03:18:05,VALID,996.561,VALID,0,VALID,94.1724,VALID,0,VALID,22.9988,VALID,71,VALID,0.404297,
2012-03-06, 03:19:05,VALID,996.563,VALID,0,VALID,94.1495,VALID,0,VALID,22.9988,VALID,71,VALID,0.2125,
2012-03-06, 03:20:05,VALID,996.556,VALID,0,VALID,94.1648,VALID,0,VALID,22.9793,VALID,71,VALID,0.234766,
2012-03-06, 03:21:05,VALID,996.572,VALID,0,VALID,94.1495,VALID,0,VALID,22.9581,VALID,71,VALID,0,
2012-03-06, 03:22:05,VALID,996.573,VALID,0,VALID,94.1114,VALID,0,VALID,22.9385,VALID,71,VALID,0,
2012-03-06, 03:23:05,VALID,996.537,VALID,0,VALID,94.0885,VALID,0,VALID,22.9403,VALID,71,VALID,0,
2012-03-06, 03:24:05,VALID,996.534,VALID,0,VALID,94.0808,VALID,0,VALID,22.919,VALID,71,VALID,0,
2012-03-06, 03:25:05,VALID,996.542,VALID,0,VALID,94.0732,VALID,0,VALID,22.9013,VALID,71,VALID,0,
2012-03-06, 03:26:05,VALID,996.527,VALID,0,VALID,94.0732,VALID,0,VALID,22.88,VALID,71,VALID,0,
2012-03-06, 03:27:05,VALID,996.536,VALID,0,VALID,94.0961,VALID,0,VALID,22.8818,VALID,71,VALID,0,
2012-03-06, 03:28:05,VALID,996.529,VALID,0,VALID,94.119,VALID,0.104696,VALID,22.8605,VALID,71,VALID,0,
2012-03-06, 03:29:05,VALID,996.507,VALID,0,VALID,94.1571,VALID,0,VALID,22.841,VALID,71,VALID,0,
2012-03-06, 03:30:05,VALID,996.513,VALID,0,VALID,94.1953,VALID,0,VALID,22.841,VALID,71,VALID,0,
2012-03-06, 03:31:05,VALID,996.516,VALID,0,VALID,94.2716,VALID,0,VALID,22.841,VALID,71,VALID,0.0644531,
2012-03-06, 03:32:05,VALID,996.526,VALID,0,VALID,94.2945,VALID,0,VALID,22.8818,VALID,71,VALID,0.230859,
2012-03-06, 03:33:05,VALID,996.544,VALID,0,VALID,94.3479,VALID,0,VALID,22.8605,VALID,71,VALID,0.39375,
2012-03-06, 03:34:05,VALID,996.531,VALID,0,VALID,94.3708,VALID,0,VALID,22.8818,VALID,71,VALID,0.36875,
2012-03-06, 03:35:05,VALID,996.507,VALID,0,VALID,94.3784,VALID,0,VALID,22.9013,VALID,71,VALID,0.553516,
2012-03-06, 03:36:05,VALID,996.556,VALID,0,VALID,94.386,VALID,0,VALID,22.8995,VALID,71,VALID,0.353516,
2012-03-06, 03:37:05,VALID,996.546,VALID,0,VALID,94.3631,VALID,0,VALID,22.8995,VALID,71,VALID,0.267578,
2012-03-06, 03:38:05,VALID,996.581,VALID,0,VALID,94.325,VALID,0,VALID,22.9208,VALID,71,VALID,0.38125,
2012-03-06, 03:39:05,VALID,996.592,VALID,0,VALID,94.2945,VALID,0,VALID,22.8995,VALID,71,VALID,0.139844,
2012-03-06, 03:40:05,VALID,996.572,VALID,0,VALID,94.2868,VALID,0,VALID,22.9208,VALID,71,VALID,0,
2012-03-06, 03:41:05,VALID,996.585,VALID,0,VALID,94.3021,VALID,0,VALID,22.9208,VALID,71,VALID,0,
2012-03-06, 03:42:05,VALID,996.598,VALID,0,VALID,94.2945,VALID,0,VALID,22.8995,VALID,71,VALID,0,
2012-03-06, 03:43:05,VALID,996.58,VALID,0,VALID,94.2868,VALID,0,VALID,22.8995,VALID,71,VALID,0,
2012-03-06, 03:44:05,VALID,996.627,VALID,0,VALID,94.2945,VALID,0,VALID,22.8995,VALID,71,VALID,0,
2012-03-06, 03:45:05,VALID,996.59,VALID,0,VALID,94.3097,VALID,0,VALID,22.9208,VALID,71,VALID,0,
2012-03-06, 03:46:05,VALID,996.582,VALID,0,VALID,94.3174,VALID,0,VALID,22.9208,VALID,71,VALID,0,
2012-03-06, 03:47:05,VALID,996.583,VALID,0,VALID,94.3021,VALID,0,VALID,22.88,VALID,71,VALID,0,
2012-03-06, 03:48:05,VALID,996.584,VALID,0,VALID,94.3021,VALID,0,VALID,22.9013,VALID,71,VALID,0,
2012-03-06, 03:49:05,VALID,996.588,VALID,0,VALID,94.2868,VALID,0,VALID,22.88,VALID,71,VALID,0,
2012-03-06, 03:50:05,VALID,996.589,VALID,0,VALID,94.2945,VALID,0,VALID,22.9013,VALID,71,VALID,0.6,
2012-03-06, 03:51:05,VALID,996.582,VALID,0,VALID,94.3326,VALID,0,VALID,22.88,VALID,71,VALID,0.49375,
2012-03-06, 03:52:05,VALID,996.641,VALID,0,VALID,94.3326,VALID,0.104696,VALID,22.9013,VALID,71,VALID,0.435937,
2012-03-06, 03:53:05,VALID,996.605,VALID,0,VALID,94.325,VALID,0.104696,VALID,22.9013,VALID,71,VALID,0.46875,